Regional Weather Roundup
Issued by NWS Northern Indiana

Home | Current Version | Previous Version | Text Only | Print | Product List | Glossary Off
Versions: 1 2 3 4 5 6 7 8 9 10 11 12 13 14 15 16 17 18 19 20 21 22 23 24 25 26 27 28 29 30 31 32 33 34 35 36 37 38 39 40 41 42 43 44 45 46 47 48 49 50

000
ASUS43 KIWX 281000
RWRIWX

KIWX WEATHER ROUNDUP
NATIONAL WEATHER SERVICE NORTHERN INDIANA
600 AM EDT TUE APR 28 2015

NOTE: "FAIR" INDICATES FEW OR NO CLOUDS BELOW 12,000 FEET WITH NO
SIGNIFICANT WEATHER AND/OR OBSTRUCTIONS TO VISIBILITY.

* THESE STATIONS ARE NOT UNDER NWS QUALITY CONTROL. THEY ALSO MAY NOT
  REPORT WEATHER SUCH AS PRECIPITATION OR FOG.

INZ001>027-281100-
NORTHERN INDIANA

CITY           SKY/WX    TMP DP  RH WIND       PRES   REMARKS
GARY*          CLEAR     36  34  93 CALM      30.15R
SOUTH BEND     CLEAR     36  33  89 NW3       30.14R
GOSHEN         FOG       33  31  92 CALM      30.12R VSB 1/2
ANGOLA*          N/A     30  30 100 CALM      30.11R
FORT WAYNE     PTCLDY    33  30  88 CALM      30.12R
PERU/GRISSOM   CLEAR     35  33  91 W2        30.12R

$$
INZ028>050-281100-
CENTRAL INDIANA

CITY           SKY/WX    TMP DP  RH WIND       PRES   REMARKS
LAFAYETTE      CLEAR     34  33  96 CALM      30.14R
KOKOMO*        CLEAR     34  30  86 NW5       30.13R WCI  30
MUNCIE*        CLEAR     35  33  92 CALM      30.11R
INDIANAPOLIS   CLEAR     39  34  82 N7        30.10R

$$
MIZ043>046-050>051-056>058-064>065-071>073-077>080-281100-
SOUTHWEST LOWER MICHIGAN

CITY           SKY/WX    TMP DP  RH WIND       PRES   REMARKS
BATTLE CREEK   CLEAR     35  31  85 CALM      30.12R
BENTON HARBOR  CLEAR     30  29  96 CALM      30.13R
COLDWATER*     CLEAR     32  31  98 SW3       30.11S FOG
HILLSDALE*     CLEAR     32  32  99 CALM      30.10S
HOLLAND        CLEAR     35  32  88 E3        30.12S
GRAND RAPIDS   CLEAR     37  32  82 SE3       30.12R
KALAMAZOO      CLEAR     34  32  92 CALM      30.13R
STURGIS*       CLEAR     34  32  93 CALM      30.11R
THREE RIVERS*  FAIR      33  32  95 CALM      30.12S

$$
OHZ001>008-015>018-024>025-281100-
NORTHWEST OHIO

CITY           SKY/WX    TMP DP  RH WIND       PRES   REMARKS
DEFIANCE       CLEAR     34  30  85 CALM      30.13R
FINDLAY        CLEAR     34  31  88 CALM      30.10R
TOLEDO EXPRESS CLEAR     32  29  88 W3        30.11S
TOLEDO METCALF CLEAR     35  32  88 W3        30.12R
LIMA           CLEAR     34  31  88 CALM      30.10R

$$
AND FOR LAKE MICHIGAN COASTAL AND OPEN LAKE BUOY OBSERVATIONS

STATION/POSITION TEMP    WIND        PRES    VSBY  WAVE
                 AIR SEA DIR/SP/G                  HT/PER
                 (F)     (DEG/KT/KT) (MB)    (MI)  (FT/S)
CALUMET HARBOR    41     240/  1/  3   N/A
MICHIGAN CITY     40     340/  4/  4   N/A
BURNS HARBOR      42     320/  4/  4 1021.3R
SAINT JOSEPH      40     230/  2/  5 1021.0R
MICHIGAN CITY     40 46  300/  6/  8   N/A           2/ 5

$$
&&



USA.gov is the U.S. government's official web portal to all federal, state and local government web resources and services.